View from above orbital plane
|
View from above satellite
|
Ground track
|
The orbit data is extracted from the following two-line orbital elements,
1 21015U 90111B 21064.11137966 .00000068 00000-0 32228-4 0 9993
2 21015 74.0520 168.1828 0020564 97.8390 327.1413 14.36031106680893
Epoch (UTC): | 05 March 2021 02:40:23 |
Eccentricity: | 0.0020564 |
inclination: | 74.0520° |
perigee height: | 757 km |
apogee height: | 786 km |
right ascension of ascending node: | 168.1828° |
argument of perigee: | 97.8390° |
revolutions per day: | 14.36031106 |
mean anomaly at epoch: | 327.1413° |
orbit number at epoch: | 68089 |
The dashed part of the orbit path shows where the satellite is in the earth's shadow,
|
|